Location: Sungai Bunut
(2.6333°N, 113.7333°E)
Time: 10:18:58
(UTC+00:00)

Courier 1B - Pass Details

Date: 06 December 2023
Orbit: 962 x 1209 km, 28.3° (Epoch: 03 March)

Event Time Altitude Azimuth Distance (km) Brightness Sun altitude
Exits shadow 18:34:40 17° 146° (SE) 2,628 10.1 -51.0°
Drops below altitude 10° 18:38:23 10° 117° (ESE) 3,085 10.6 -50.2°
Sets 18:42:20 0° 98° (E) 4,007 11.3 -49.4°
